Location: Unspecified
(0.0000°N, 0.0000°E)
Time: 05:44:58
(UTC+00:00)

Altair - Pass Details

Date: 22 May 2026
Orbit: 1501 x 1682 km, 47.2° (Epoch: 8 June)

Event Time Altitude Azimuth Distance (km) Brightness Sun altitude
Exits shadow 02:00:50 15° 355° (N) 3,445 9.5 -53.4°
Drops below altitude 10° 02:02:34 10° 4° (N) 3,819 9.8 -53.1°
Sets 02:06:34 0° 17° (NNE) 4,834 10.5 -52.3°
